{"data":{"norad_id":61051,"epoch":"2026-09-21T21:09:45.754848Z","epoch_age_seconds":72775,"freshness":"FRESH","line1":"1 61051U 24164B   26264.88177957  .00000215  00000+0  66284-5 0  9990","line2":"2 61051  53.1604  64.0735 0001008  88.3943 271.7190 15.69710908116239","mean_motion":15.69710908,"eccentricity":0.0001008,"inclination_deg":53.1604,"raan_deg":64.0735,"arg_perigee_deg":88.3943,"mean_anomaly_deg":271.719,"bstar":6.6284e-6,"rev_number":11623,"period_min":91.736637151533,"perigee_km":359.04497566847,"apogee_km":360.40332847673,"semimajor_km":6737.8611520726,"source":"CELESTRAK","updated_at":"2026-09-22T09:00:49.330389Z"}}